GW4420 Weather Reports


time (UTC)temp
C
wind
direction
speed
KPH
gust
KPH
rain 1hr
cm
rain 24hr
cm
rain mn
cm
humidity
%
barometer
mb
20260507225129 26 42 1.6 3.2 0.00 0.00 0.00 78 1017.1
20260507224624 26 114 1.6 3.2 0.00 0.00 0.00 78 1017.2
20260507224121 26 73 3.2 3.2 0.00 0.00 0.00 79 1017.3
20260507223617 26 57 1.6 1.6 0.00 0.00 0.00 79 1017.2
20260507223114 26 38 1.6 3.2 0.00 0.00 0.00 80 1017.1
20260507222611 26 66 0.0 1.6 0.00 0.00 0.00 81 1016.8
20260507222108 26 76 0.0 1.6 0.00 0.00 0.00 81 1016.9
20260507221603 26 89 0.0 0.0 0.00 0.00 0.00 83 1016.6
20260507221101 25 85 0.0 0.0 0.00 0.00 0.00 84 1016.7
20260507220558 25 69 0.0 0.0 0.00 0.00 0.00 88 1016.9
20260507220055 24 116 0.0 0.0 0.00 0.00 0.00 89 1016.6
20260507215551 24 101 0.0 0.0 0.00 0.00 0.00 91 1016.5
20260507215049 23 92 0.0 0.0 0.00 0.00 0.00 92 1016.6
20260507214546 23 102 0.0 0.0 0.00 0.00 0.00 93 1016.4
20260507214042 23 86 0.0 0.0 0.00 0.00 0.00 94 1016.5
20260507213538 23 95 0.0 0.0 0.00 0.00 0.00 95 1016.5
20260507213036 22 91 0.0 0.0 0.00 0.00 0.00 95 1016.5
20260507212532 22 109 0.0 0.0 0.00 0.00 0.00 95 1016.5
20260507212029 22 101 0.0 0.0 0.00 0.00 0.00 95 1016.5
20260507211525 22 91 3.2 3.2 0.00 0.00 0.00 95 1016.5
20260507211021 22 83 1.6 1.6 0.00 0.00 0.00 95 1016.2
20260507210519 22 87 0.0 0.0 0.00 0.00 0.00 95 1016.4
20260507210016 21 87 0.0 0.0 0.00 0.00 0.00 95 1016.3
20260507205512 21 94 0.0 0.0 0.00 0.00 0.00 94 1016.0
20260507205009 21 94 0.0 0.0 0.00 0.00 0.00 94 1016.2
20260507204505 21 98 0.0 0.0 0.00 0.00 0.00 94 1016.1
20260507204003 21 86 0.0 0.0 0.00 0.00 0.00 94 1016.0
20260507203501 21 92 0.0 0.0 0.00 0.00 0.00 94 1016.0
20260507202957 21 98 0.0 0.0 0.00 0.00 0.00 94 1016.2
20260507202453 21 95 0.0 0.0 0.00 0.00 0.00 94 1016.4
20260507201949 21 95 0.0 0.0 0.00 0.00 0.00 94 1016.1
20260507201449 21 101 0.0 0.0 0.00 0.00 0.00 94 1016.1
20260507200946 21 93 0.0 0.0 0.00 0.00 0.00 94 1016.2
20260507200442 22 94 0.0 0.0 0.00 0.00 0.00 94 1016.4
20260507195938 22 103 0.0 0.0 0.00 0.00 0.00 94 1016.2
20260507195436 22 101 0.0 0.0 0.00 0.00 0.00 93 1016.1
20260507194933 22 81 0.0 0.0 0.00 0.00 0.00 94 1016.0
20260507194429 22 105 0.0 0.0 0.00 0.00 0.00 93 1016.1
20260507193925 22 100 0.0 0.0 0.00 0.00 0.00 93 1015.8
20260507193423 22 102 0.0 0.0 0.00 0.00 0.00 93 1015.9
20260507192919 22 99 0.0 0.0 0.00 0.00 0.00 93 1016.0
20260507192415 22 98 0.0 0.0 0.00 0.00 0.00 93 1016.0
20260507191912 22 102 0.0 0.0 0.00 0.00 0.00 93 1015.9
20260507191409 22 105 0.0 0.0 0.00 0.00 0.00 93 1015.9
20260507190905 22 99 0.0 0.0 0.00 0.00 0.00 93 1016.0
20260507190403 22 98 0.0 0.0 0.00 0.00 0.00 93 1016.0
20260507185902 22 107 0.0 0.0 0.00 0.00 0.00 93 1016.0
20260507185359 22 112 0.0 0.0 0.00 0.00 0.00 92 1016.0
20260507184855 22 79 0.0 0.0 0.00 0.00 0.00 92 1015.8
20260507184353 22 120 0.0 0.0 0.00 0.00 0.00 93 1016.0
20260507183850 22 103 0.0 0.0 0.00 0.00 0.00 92 1015.9
20260507183347 22 98 0.0 0.0 0.00 0.00 0.00 92 1016.2
20260507182845 22 109 0.0 0.0 0.00 0.00 0.00 92 1016.2
20260507182340 22 101 0.0 0.0 0.00 0.00 0.00 92 1016.0
20260507181837 22 65 0.0 1.6 0.00 0.00 0.00 92 1016.0
20260507181332 22 94 0.0 0.0 0.00 0.00 0.00 92 1016.1
20260507180830 22 103 0.0 0.0 0.00 0.00 0.00 92 1016.1
20260507180327 22 103 0.0 1.6 0.00 0.00 0.00 92 1016.2
20260507175822 22 81 0.0 1.6 0.00 0.00 0.00 92 1016.1
20260507175319 22 97 0.0 0.0 0.00 0.00 0.00 92 1016.5
20260507174816 22 63 0.0 0.0 0.00 0.00 0.00 92 1016.5
20260507174314 22 96 0.0 0.0 0.00 0.00 0.00 92 1016.4
20260507173812 22 81 0.0 0.0 0.00 0.00 0.00 92 1016.4
20260507173308 22 92 0.0 0.0 0.00 0.00 0.00 92 1016.5
20260507172805 22 94 0.0 0.0 0.00 0.00 0.00 91 1016.4
20260507172302 22 88 0.0 0.0 0.00 0.00 0.00 91 1016.7
20260507171757 22 67 0.0 0.0 0.00 0.00 0.00 91 1016.6
20260507171254 22 97 0.0 0.0 0.00 0.00 0.00 91 1016.6
20260507170751 23 73 0.0 0.0 0.00 0.00 0.00 91 1016.8
20260507170248 23 91 0.0 0.0 0.00 0.00 0.00 91 1016.8
20260507165743 23 101 0.0 0.0 0.00 0.00 0.00 91 1016.8
20260507165240 23 90 0.0 0.0 0.00 0.00 0.00 91 1016.9
20260507164736 23 94 0.0 0.0 0.00 0.00 0.00 91 1016.9
20260507164233 23 89 0.0 0.0 0.00 0.00 0.00 91 1016.9
20260507163730 23 82 0.0 0.0 0.00 0.00 0.00 91 1016.9
20260507163229 23 79 0.0 0.0 0.00 0.00 0.00 91 1017.0
20260507162724 23 98 0.0 0.0 0.00 0.00 0.00 91 1017.1
20260507162220 23 98 0.0 0.0 0.00 0.00 0.00 91 1017.1
20260507161717 23 109 0.0 1.6 0.00 0.00 0.00 91 1017.2
20260507161214 23 80 0.0 0.0 0.00 0.00 0.00 91 1017.2
20260507160709 23 90 0.0 0.0 0.00 0.00 0.00 91 1017.3
20260507160206 23 84 0.0 0.0 0.00 0.00 0.00 91 1017.5
20260507155702 23 90 0.0 0.0 0.00 0.00 0.00 91 1017.4
20260507155158 23 82 0.0 1.6 0.00 0.00 0.00 91 1017.5
20260507154655 23 84 0.0 0.0 0.00 0.00 0.00 91 1017.6
20260507154153 23 107 0.0 0.0 0.00 0.00 0.00 91 1017.4
20260507153649 23 96 0.0 0.0 0.00 0.00 0.00 91 1017.5
20260507153145 23 107 0.0 0.0 0.00 0.00 0.00 91 1017.3
20260507152642 23 84 0.0 0.0 0.00 0.00 0.00 91 1017.5
20260507152138 23 91 0.0 0.0 0.00 0.00 0.00 91 1017.4
20260507151634 23 91 0.0 1.6 0.00 0.00 0.00 91 1017.4
20260507151131 23 56 4.8 6.4 0.00 0.00 0.00 91 1017.5
20260507150628 23 64 1.6 1.6 0.00 0.00 0.00 91 1017.4
20260507150125 23 103 0.0 3.2 0.00 0.00 0.00 90 1017.4
20260507145625 23 92 0.0 1.6 0.00 0.03 0.03 90 1017.2
20260507145124 23 61 3.2 3.2 0.00 0.03 0.03 90 1017.6
20260507144619 23 85 0.0 0.0 0.00 0.03 0.03 90 1017.5
20260507144118 22 80 0.0 0.0 0.00 0.03 0.03 89 1017.6
20260507143614 22 100 0.0 0.0 0.00 0.03 0.03 89 1017.7
20260507143112 22 95 0.0 0.0 0.00 0.03 0.03 88 1017.7
20260507142607 22 87 0.0 0.0 0.00 0.03 0.03 88 1017.8
20260507142104 22 90 0.0 0.0 0.00 0.03 0.03 87 1017.7
20260507141600 22 99 0.0 0.0 0.00 0.03 0.03 87 1017.8
20260507141057 22 90 0.0 0.0 0.00 0.03 0.03 86 1017.7
20260507140553 22 80 0.0 0.0 0.00 0.03 0.03 85 1017.8
20260507140051 22 84 0.0 0.0 0.00 0.03 0.03 85 1017.8
20260507135548 22 98 0.0 0.0 0.00 0.03 0.03 84 1017.7
20260507135045 22 91 0.0 0.0 0.00 0.03 0.03 83 1017.8
20260507134541 22 104 0.0 0.0 0.00 0.03 0.03 82 1017.8
20260507134037 23 90 0.0 0.0 0.00 0.03 0.03 81 1017.5
20260507133534 23 101 0.0 0.0 0.00 0.03 0.03 80 1017.7
20260507133032 23 73 0.0 0.0 0.00 0.03 0.03 79 1017.7
20260507132528 23 100 0.0 1.6 0.00 0.03 0.03 79 1017.7
20260507132024 23 110 0.0 1.6 0.00 0.03 0.03 79 1017.8
20260507131522 23 97 0.0 0.0 0.00 0.03 0.03 78 1017.5
20260507131019 23 99 0.0 0.0 0.00 0.03 0.03 78 1017.5
20260507130515 23 92 0.0 0.0 0.00 0.03 0.03 77 1017.4
20260507130014 23 96 0.0 0.0 0.00 0.03 0.03 76 1017.5
20260507125512 23 91 0.0 0.0 0.00 0.03 0.03 76 1017.4
20260507125011 23 95 0.0 0.0 0.00 0.03 0.03 75 1017.5
20260507124505 23 82 0.0 1.6 0.00 0.03 0.03 75 1017.5
20260507124003 23 72 0.0 1.6 0.00 0.03 0.03 74 1017.3
20260507123500 23 77 0.0 1.6 0.00 0.03 0.03 74 1017.3
20260507122951 23 87 0.0 0.0 0.00 0.03 0.03 73 1017.3
20260507122447 23 95 0.0 0.0 0.00 0.03 0.03 73 1017.3
20260507121944 23 90 0.0 0.0 0.00 0.03 0.03 73 1017.1
20260507121439 23 90 0.0 0.0 0.00 0.03 0.03 74 1016.9
20260507120936 23 74 0.0 1.6 0.00 0.03 0.03 74 1017.0
20260507120432 23 75 0.0 1.6 0.00 0.03 0.03 75 1016.8
20260507115928 23 70 0.0 0.0 0.00 0.03 0.03 76 1016.7
20260507115424 23 96 0.0 0.0 0.00 0.03 0.03 76 1016.9
20260507114921 24 86 0.0 1.6 0.00 0.03 0.03 75 1016.9
20260507114417 24 75 0.0 0.0 0.00 0.03 0.03 75 1017.1
20260507113915 24 108 0.0 0.0 0.00 0.03 0.03 74 1016.9
20260507113412 24 128 0.0 0.0 0.00 0.03 0.03 74 1016.8
20260507112909 24 103 0.0 0.0 0.00 0.03 0.03 74 1016.5
20260507112406 24 91 0.0 0.0 0.00 0.03 0.03 73 1016.5
20260507111904 24 48 0.0 1.6 0.00 0.03 0.03 73 1016.5
20260507111400 24 53 1.6 3.2 0.00 0.03 0.03 73 1016.5
20260507110856 24 55 1.6 3.2 0.00 0.03 0.03 73 1016.3
20260507110352 24 90 1.6 1.6 0.00 0.03 0.03 74 1016.3
20260507105850 24 89 0.0 0.0 0.00 0.03 0.03 74 1016.5
20260507105346 24 63 1.6 3.2 0.00 0.03 0.03 74 1016.1
20260507104843 24 60 1.6 1.6 0.00 0.03 0.03 75 1016.4
20260507104340 24 65 0.0 1.6 0.00 0.03 0.03 75 1016.2
20260507103835 24 98 0.0 0.0 0.00 0.03 0.03 75 1016.1
20260507103332 24 30 1.6 1.6 0.00 0.03 0.03 75 1016.0
20260507102829 24 85 1.6 1.6 0.00 0.03 0.03 75 1016.0
20260507102325 24 97 1.6 3.2 0.00 0.03 0.03 74 1016.2
20260507101822 24 85 0.0 1.6 0.00 0.03 0.03 74 1016.0
20260507101321 25 74 1.6 1.6 0.00 0.03 0.03 74 1015.8
20260507100819 25 80 0.0 3.2 0.00 0.03 0.03 73 1015.9
20260507100317 25 68 1.6 3.2 0.00 0.03 0.03 73 1015.9
20260507095815 25 105 0.0 3.2 0.00 0.03 0.03 72 1015.9
20260507095311 25 94 1.6 4.8 0.00 0.03 0.03 72 1015.8
20260507094808 25 47 1.6 3.2 0.00 0.03 0.03 72 1016.0
20260507094305 25 105 1.6 1.6 0.00 0.03 0.03 73 1015.7
20260507093802 25 96 3.2 3.2 0.00 0.03 0.03 73 1015.8
20260507093300 25 88 0.0 4.8 0.00 0.03 0.03 72 1015.6
20260507092758 25 60 3.2 4.8 0.00 0.03 0.03 72 1015.7
20260507092254 25 56 0.0 4.8 0.00 0.03 0.03 72 1015.6
20260507091751 25 41 1.6 3.2 0.00 0.03 0.03 72 1015.6
20260507091248 26 26 3.2 6.4 0.00 0.03 0.03 72 1015.5
20260507090747 26 48 3.2 4.8 0.00 0.03 0.03 71 1015.5
20260507090244 26 38 3.2 4.8 0.00 0.03 0.03 70 1015.4
20260507085741 26 90 0.0 0.0 0.00 0.03 0.03 67 1015.2
20260507085238 26 102 0.0 0.0 0.00 0.03 0.03 66 1015.2
20260507084735 26 97 0.0 0.0 0.00 0.03 0.03 66 1015.2
20260507084231 26 65 0.0 0.0 0.00 0.03 0.03 67 1015.3
20260507083729 26 96 0.0 1.6 0.00 0.03 0.03 67 1015.4
20260507083225 25 99 0.0 3.2 0.00 0.03 0.03 67 1015.3
20260507082722 25 124 0.0 3.2 0.00 0.03 0.03 68 1015.2
20260507082218 25 102 1.6 4.8 0.00 0.03 0.03 68 1015.5
20260507081715 25 103 0.0 1.6 0.00 0.03 0.03 66 1015.3
20260507081211 25 103 0.0 1.6 0.00 0.03 0.03 66 1015.4
20260507080707 25 104 0.0 1.6 0.00 0.03 0.03 66 1015.3
20260507080204 26 126 3.2 4.8 0.00 0.03 0.03 66 1015.2
20260507075659 26 106 1.6 4.8 0.00 0.03 0.03 67 1015.2
20260507075155 26 159 1.6 3.2 0.00 0.03 0.03 66 1015.2
20260507074652 26 115 3.2 4.8 0.00 0.03 0.03 64 1015.4
20260507074150 26 96 0.0 1.6 0.00 0.03 0.03 64 1015.5
20260507073646 27 96 3.2 3.2 0.00 0.03 0.03 63 1015.5
20260507073142 27 140 0.0 1.6 0.00 0.03 0.03 62 1015.5
20260507072641 27 147 0.0 3.2 0.00 0.03 0.03 63 1015.7
20260507072138 27 114 0.0 1.6 0.00 0.03 0.03 65 1015.5
20260507071636 26 145 0.0 3.2 0.00 0.03 0.03 67 1015.6
20260507071131 26 117 3.2 6.4 0.00 0.03 0.03 68 1015.5
20260507070628 27 113 6.4 6.4 0.00 0.03 0.03 67 1015.4
20260507070126 27 123 0.0 1.6 0.00 0.03 0.03 68 1015.5
20260507065622 27 126 0.0 6.4 0.00 0.03 0.03 66 1015.6
20260507065119 27 61 0.0 1.6 0.00 0.03 0.03 63 1015.5
20260507064616 28 127 0.0 3.2 0.00 0.03 0.03 65 1015.4
20260507064115 28 213 1.6 1.6 0.00 0.03 0.03 63 1015.7
20260507063612 28 95 0.0 1.6 0.00 0.03 0.03 63 1015.5
20260507063109 28 83 0.0 1.6 0.00 0.03 0.03 64 1015.4
20260507062605 28 115 0.0 3.2 0.00 0.03 0.03 64 1015.4
20260507062103 28 143 1.6 3.2 0.00 0.03 0.03 64 1015.5
20260507061601 28 149 3.2 3.2 0.00 0.03 0.03 64 1015.6
20260507061059 28 213 0.0 3.2 0.00 0.03 0.03 64 1015.5
20260507060557 28 142 0.0 1.6 0.00 0.03 0.03 63 1015.6
20260507060053 28 116 1.6 3.2 0.00 0.03 0.03 64 1015.5
20260507055548 27 114 0.0 3.2 0.00 0.03 0.03 64 1015.7
20260507055044 27 107 1.6 6.4 0.00 0.03 0.03 66 1015.6
20260507054540 28 106 1.6 6.4 0.00 0.03 0.03 63 1015.7
20260507054038 29 160 1.6 3.2 0.00 0.03 0.03 60 1015.7
20260507053536 30 124 0.0 3.2 0.00 0.03 0.03 58 1015.6
20260507053034 30 125 0.0 1.6 0.00 0.03 0.03 56 1015.8
20260507052531 30 79 0.0 3.2 0.00 0.03 0.03 58 1015.8
20260507052028 29 221 0.0 1.6 0.00 0.03 0.03 61 1015.9
20260507051526 28 137 1.6 3.2 0.00 0.03 0.03 63 1015.9
20260507051022 28 119 0.0 1.6 0.00 0.03 0.03 63 1016.0
20260507050519 27 200 1.6 3.2 0.00 0.03 0.03 66 1016.1
20260507050015 27 98 0.0 9.7 0.00 0.03 0.03 67 1015.9
20260507045512 28 113 6.4 11.3 0.00 0.03 0.03 63 1016.1
20260507045009 30 124 0.0 1.6 0.00 0.03 0.03 60 1016.2
20260507044506 30 87 1.6 6.4 0.00 0.03 0.03 60 1016.2
20260507044002 30 80 0.0 1.6 0.00 0.03 0.03 58 1016.1
20260507043459 30 52 1.6 1.6 0.00 0.03 0.03 54 1016.1
20260507042955 30 82 0.0 1.6 0.00 0.03 0.03 57 1016.2
20260507042452 30 101 0.0 1.6 0.00 0.03 0.03 61 1016.3
20260507041947 30 103 0.0 1.6 0.00 0.03 0.03 61 1016.3
20260507041444 30 109 0.0 1.6 0.00 0.03 0.03 62 1016.4
20260507040942 29 130 1.6 1.6 0.00 0.03 0.03 62 1016.4
20260507040437 28 69 0.0 1.6 0.00 0.03 0.03 63 1016.2
20260507035933 28 83 0.0 1.6 0.00 0.03 0.03 63 1016.5
20260507035430 29 84 0.0 4.8 0.00 0.03 0.03 63 1016.5
20260507034927 29 18 1.6 1.6 0.00 0.03 0.03 64 1016.8
20260507034424 28 31 0.0 3.2 0.00 0.03 0.03 63 1016.7
20260507033922 28 85 1.6 1.6 0.00 0.03 0.03 63 1016.9
20260507033419 27 145 1.6 1.6 0.00 0.03 0.03 65 1016.8
20260507032916 28 115 4.8 4.8 0.00 0.03 0.03 63 1016.9
20260507032413 28 136 1.6 1.6 0.00 0.03 0.03 65 1017.0
20260507031909 28 107 0.0 1.6 0.00 0.03 0.03 62 1016.9
20260507031406 28 132 1.6 1.6 0.00 0.03 0.03 63 1017.0
20260507030903 28 69 1.6 3.2 0.00 0.03 0.03 64 1017.4
20260507030400 27 55 1.6 1.6 0.00 0.03 0.03 63 1017.1
20260507025857 28 67 0.0 1.6 0.00 0.03 0.03 64 1017.1
20260507025354 28 72 1.6 3.2 0.00 0.03 0.03 67 1017.2
20260507024852 27 90 0.0 3.2 0.00 0.03 0.03 67 1017.2
20260507024349 27 97 0.0 3.2 0.00 0.03 0.03 67 1017.4
20260507023844 27 74 0.0 1.6 0.00 0.03 0.03 67 1017.2
20260507023342 26 88 0.0 1.6 0.00 0.03 0.03 68 1017.4
20260507022839 26 48 0.0 1.6 0.00 0.03 0.03 66 1017.4
20260507022335 26 68 0.0 1.6 0.00 0.03 0.03 69 1017.5
20260507021831 26 298 0.0 3.2 0.00 0.03 0.03 70 1017.3
20260507021327 26 287 0.0 3.2 0.00 0.03 0.03 69 1017.3
20260507020825 25 25 1.6 3.2 0.00 0.03 0.03 73 1017.6
20260507020321 25 310 0.0 6.4 0.00 0.03 0.03 76 1017.5
20260507015819 25 130 4.8 9.7 0.00 0.03 0.03 73 1017.5
20260507015316 25 131 4.8 6.4 0.00 0.03 0.03 71 1017.5
20260507014813 26 109 4.8 6.4 0.00 0.03 0.03 71 1017.4
20260507014309 27 126 4.8 9.7 0.00 0.03 0.03 68 1017.3
20260507013806 28 51 1.6 3.2 0.00 0.03 0.03 66 1017.4
20260507013303 28 69 0.0 1.6 0.00 0.03 0.03 66 1017.3
20260507012801 27 108 1.6 1.6 0.00 0.03 0.03 69 1017.5
20260507012256 27 110 1.6 1.6 0.00 0.03 0.03 68 1017.5
20260507011754 27 40 0.0 0.0 0.00 0.03 0.03 71 1017.3
20260507011250 27 105 0.0 1.6 0.00 0.03 0.03 69 1017.5
20260507010750 27 90 0.0 1.6 0.00 0.03 0.03 70 1017.5
20260507010246 27 62 0.0 1.6 0.00 0.03 0.03 72 1017.6
20260507005744 27 73 0.0 1.6 0.00 0.03 0.03 73 1017.8
20260507005240 26 106 1.6 1.6 0.00 0.03 0.03 73 1017.5
20260507004736 26 287 0.0 3.2 0.00 0.03 0.03 74 1017.6
20260507004235 26 326 0.0 1.6 0.00 0.03 0.03 74 1017.8
20260507003730 26 88 3.2 3.2 0.00 0.03 0.03 73 1018.1
20260507003226 26 300 1.6 3.2 0.00 0.03 0.03 74 1017.9
20260507002722 26 67 1.6 4.8 0.00 0.03 0.03 75 1017.9
20260507002218 26 51 0.0 1.6 0.00 0.03 0.03 75 1017.9
20260507001715 26 55 1.6 1.6 0.00 0.03 0.03 76 1018.1
20260507001212 26 44 1.6 1.6 0.00 0.03 0.03 75 1017.9
20260507000708 26 70 1.6 1.6 0.00 0.03 0.03 75 1018.0
20260507000205 26 83 1.6 3.2 0.00 0.03 0.03 75 1017.7
20260506235701 26 80 0.0 1.6 0.00 0.03 0.03 75 1017.6
20260506235157 26 95 0.0 0.0 0.00 0.03 0.03 77 1017.8
20260506234654 26 90 0.0 1.6 0.00 0.03 0.03 77 1017.6
20260506234151 26 81 0.0 0.0 0.00 0.03 0.03 75 1017.7
20260506233648 26 76 0.0 1.6 0.00 0.03 0.03 76 1017.6
20260506233145 26 69 0.0 1.6 0.00 0.03 0.03 77 1017.9
20260506232641 25 80 0.0 3.2 0.00 0.03 0.03 79 1017.7
20260506232137 25 83 1.6 3.2 0.00 0.03 0.03 78 1017.7
20260506231634 26 45 0.0 1.6 0.00 0.03 0.03 78 1017.7
20260506231132 26 86 0.0 0.0 0.00 0.03 0.03 80 1017.6
20260506230629 25 86 0.0 1.6 0.00 0.03 0.03 83 1017.8
20260506230126 25 94 0.0 0.0 0.00 0.03 0.03 85 1017.6
20260506225622 24 87 0.0 0.0 0.00 0.03 0.03 87 1017.6